Voltar ao catálogo

JILIN-1-03

AtivoCiênciaSSO
NORAD 41914·PAYLOAD·🇨🇳 China

Lançado Jan 9, 2017 de Jiuquan Satellite Launch Center

Loading…

Próximas Passagens (próximas 24 horas)

TLE

AtualizadoSource: Space-Track

Época: Sep 14, 2026, 22:24 UTC

1 41914U 17002B   26257.93341839  .00013165  00000-0  29476-3 0  9998
2 41914  97.1977 263.8963 0005114 182.1063 178.0165 15.43565194535699

Acompanhe JILIN-1-03 em tempo real com AllMySat

Download on the App Store